Simultaneous Nadir Overpasses (SNOs) Predictions

Prediction of SNOs over PacNW region [( 10.00, 139.50) to ( 22.70, 165.60)] between AQUA and NPP Satellites:

Table of predicted SNOs over PacNW region for the next 30.0 days since TLE Epoch: 3/4/2023
Index Date (AQUA) Time (AQUA) AQUA Lat,Lon Date (NPP) Time (NPP) NPP Lat,Lon Distance(km) Time Diff (sec)
1 03/11/2023 15:18:43 22.64, 160.21 03/11/2023 15:19:08 23.63, 155.86 458.74 25
2 03/14/2023 03:38:51 22.70, 148.27 03/14/2023 03:35:21 21.91, 144.43 404.71 210
3 03/22/2023 02:42:55 19.50, 162.86 03/22/2023 02:43:48 18.41, 157.96 529.76 53
4 03/24/2023 16:18:22 19.44, 144.88 03/24/2023 16:17:28 20.25, 140.71 445.42 54
